Theta_e
292 292 292 292 292 294 297 298 301 303 303 304 306 304 303 303 303 302 301 301 301 300 299 298 296 296 295 294 294 294 294 293 293 292 291 291 290 290 290 289 287 286 286 287 286 287 287 288 288 287 287 286 287 285 285 286 285 284 285 285 286 287
291 292 292 292 292 292 293 296 299 300 300 300 300 299 299 299 299 299 298 297 296 294 294 294 294 294 294 293 293 293 292 291 291 291 290 290 288 287 286 286 286 286 286 285 285 285 284 285 284 284 284 284 284 284 284 284 284 285 284 285 284 286
291 290 290 291 290 290 291 294 296 297 297 297 298 298 297 296 295 295 294 294 293 293 293 292 292 292 292 292 292 291 290 289 289 289 288 285 286 285 286 286 285 285 285 284 284 284 284 285 284 283 283 283 284 283 284 284 284 285 284 283 285 284
290 289 289 289 291 290 291 292 293 293 293 294 294 294 294 293 293 293 293 293 293 292 292 291 291 291 291 290 289 288 287 286 286 285 285 286 283 285 285 286 284 283 283 284 284 284 284 284 284 283 283 284 284 284 284 283 284 284 284 283 284 284
290 289 290 290 291 290 290 290 292 292 292 292 291 293 291 292 292 292 292 292 292 290 290 289 288 288 287 287 287 286 286 285 284 284 286 285 284 283 284 283 283 282 282 284 283 284 284 284 284 282 283 283 284 284 284 283 284 284 284 284 284 284
288 289 290 291 290 290 291 291 290 291 291 291 291 290 290 290 291 291 291 290 289 288 288 287 287 287 286 286 286 285 284 285 284 283 285 284 283 284 282 282 282 282 283 284 284 284 284 284 283 283 282 283 283 284 284 284 283 283 283 283 284 284
289 291 291 291 290 289 289 290 290 290 289 288 290 289 289 289 289 289 289 288 288 287 287 286 286 286 286 285 285 285 284 284 284 283 283 283 284 282 283 283 283 284 284 284 283 283 283 283 283 283 283 283 282 282 283 284 284 283 284 283 283 284
291 290 289 290 289 289 289 289 289 288 288 288 288 289 289 288 288 288 288 287 287 287 286 286 286 286 286 285 285 284 284 284 284 283 282 282 284 283 283 283 283 282 282 282 282 282 281 281 281 282 283 283 283 282 281 282 282 283 283 283 284 283
291 291 290 290 288 288 289 289 289 288 288 288 288 288 289 288 288 287 287 287 287 287 286 286 286 286 285 285 284 284 284 283 283 283 283 282 283 283 283 282 282 281 282 282 282 282 282 282 282 281 281 282 282 282 283 282 282 283 282 283 283 283
291 291 291 289 289 288 288 288 289 289 289 289 288 288 288 288 287 287 287 287 286 286 286 285 285 285 284 284 283 283 283 283 282 282 282 282 283 283 281 281 282 281 280 280 280 281 280 280 280 280 280 280 281 281 281 281 282 282 282 282 282 282
292 292 290 289 288 288 288 288 288 287 287 288 288 288 287 287 287 287 287 286 286 286 285 285 284 284 283 283 283 283 283 282 281 281 281 281 281 282 280 281 281 281 281 281 281 281 280 281 282 281 281 282 283 281 282 282 282 282 282 282 282 282
292 292 291 290 289 289 289 289 288 288 288 288 287 288 287 287 287 287 286 286 286 285 285 284 284 283 283 283 283 282 282 281 281 281 281 280 280 280 279 279 279 280 280 280 280 279 281 281 281 283 288 289 285 283 283 283 282 282 281 281 281 281
292 292 291 291 290 290 290 290 289 288 288 288 288 288 287 286 286 286 286 286 285 285 284 284 283 283 283 282 282 281 281 281 281 280 280 279 279 279 278 279 280 280 279 279 279 280 281 281 282 286 288 289 289 286 282 282 282 281 281 280 280 280
293 292 292 291 291 290 290 290 289 289 289 288 288 287 286 286 286 286 285 285 285 284 284 283 283 282 282 282 281 280 280 279 279 279 278 278 278 278 278 279 279 279 279 279 279 279 280 280 284 287 287 288 288 288 285 282 282 281 280 280 280 280
294 293 293 292 291 291 290 290 289 289 289 288 287 286 285 285 285 285 285 284 284 284 283 283 282 282 281 281 280 280 279 278 277 276 276 276 277 278 279 278 278 278 278 279 279 279 279 279 283 285 287 287 287 288 287 282 281 280 279 279 279 279
294 294 293 293 292 291 290 290 290 289 288 287 286 286 285 285 285 285 285 284 284 283 282 282 282 281 280 280 279 279 278 277 276 275 275 276 277 277 277 277 277 277 278 278 278 278 278 278 282 285 286 286 287 287 286 280 280 279 279 279 279 279
294 293 292 292 291 290 289 288 288 287 287 287 286 285 285 284 284 284 284 284 283 283 282 282 281 280 279 279 278 277 277 276 275 275 275 276 276 277 276 276 275 276 275 276 276 277 277 278 283 284 285 286 286 287 285 280 280 279 278 279 278 278
294 294 293 292 290 289 289 289 288 288 287 286 286 285 284 284 284 283 283 283 282 282 282 281 280 279 278 278 277 276 276 275 274 274 275 275 275 274 274 274 274 274 274 275 274 276 276 277 282 283 284 285 285 285 281 279 279 278 278 278 278 278
295 294 291 290 290 289 289 288 288 287 286 285 285 284 284 284 283 283 283 283 282 281 281 280 279 278 277 277 276 275 274 274 274 274 274 273 274 273 273 273 274 274 274 274 274 274 275 275 279 282 283 284 285 283 278 278 277 277 277 277 278 278
290 289 291 290 289 289 288 287 287 287 286 286 285 284 283 283 283 283 282 282 281 280 279 279 278 277 276 275 274 274 274 272 272 272 273 273 272 272 272 273 273 273 273 273 274 274 274 274 277 281 282 283 283 283 278 277 277 276 276 277 278 278
291 289 289 289 288 288 287 287 287 286 286 285 284 284 283 283 282 282 282 281 280 279 278 277 276 275 274 274 273 273 272 271 271 271 270 271 270 271 272 272 272 272 272 272 273 276 275 272 275 280 281 282 282 281 277 276 275 275 276 276 277 278
288 288 288 289 289 288 287 287 287 286 286 285 284 283 283 282 282 281 280 279 278 277 276 275 274 274 273 273 272 271 271 271 270 270 271 269 270 270 271 270 271 272 274 274 273 272 271 271 272 275 281 281 282 282 279 275 274 275 275 277 277 277
290 290 290 290 289 287 287 287 287 286 285 284 283 283 283 282 280 279 279 278 277 275 274 274 273 273 272 271 272 272 271 270 271 270 269 269 270 270 270 270 272 272 272 272 271 270 270 271 271 274 279 280 281 282 280 274 275 276 277 277 277 277
287 286 286 287 287 287 287 287 286 286 284 284 283 282 280 279 279 278 277 276 275 274 273 273 272 272 271 271 271 270 270 269 269 270 270 270 270 271 271 271 271 270 270 269 269 270 270 271 276 273 276 279 280 281 281 278 277 279 278 277 276 277
286 286 286 285 286 286 286 286 285 284 283 283 281 278 278 278 277 277 276 275 274 273 272 272 272 271 270 270 270 270 270 270 271 271 271 271 271 271 270 269 268 268 268 268 268 269 269 270 271 276 275 278 279 280 280 280 279 280 278 277 276 276
285 284 282 284 284 285 285 286 284 283 282 281 277 277 277 277 276 276 274 274 273 272 272 271 270 269 269 269 269 269 270 271 271 270 270 270 269 268 268 267 267 267 267 267 268 268 270 269 269 274 276 276 278 279 279 279 280 280 278 277 276 276
283 282 281 281 282 282 283 284 284 281 281 278 277 277 276 276 275 274 273 272 271 271 270 269 269 268 267 268 270 271 271 270 270 269 269 268 267 266 266 266 266 266 266 266 267 268 269 269 269 269 273 276 276 278 278 279 279 279 279 276 276 276
280 280 280 278 279 280 280 281 282 281 279 276 276 276 276 275 274 273 271 271 270 270 270 270 269 269 270 270 270 270 270 270 270 269 268 265 264 264 264 266 266 265 265 266 266 267 268 269 268 267 269 273 275 276 277 278 278 277 278 277 276 278
279 279 278 278 275 277 277 278 277 278 276 276 275 275 274 273 273 272 271 270 270 270 270 271 270 270 269 269 269 269 269 269 268 268 266 263 262 263 264 265 266 266 266 266 266 266 267 267 267 268 270 273 275 275 276 276 276 277 277 276 276 277
279 278 277 277 275 274 275 275 274 275 275 274 274 273 273 272 272 271 270 270 270 270 270 270 270 269 268 268 268 268 267 266 265 263 263 263 262 262 264 263 264 265 265 265 265 265 265 266 267 269 271 274 275 275 275 275 275 275 275 275 276 276
278 277 277 276 273 273 273 273 273 274 274 274 272 272 272 272 271 271 270 270 270 269 269 269 269 268 267 266 265 265 265 263 261 262 262 263 263 262 263 263 265 266 263 262 264 265 266 266 267 269 276 275 277 275 274 274 274 275 275 276 278 275
277 276 276 274 271 272 272 272 272 272 273 272 272 272 271 271 270 270 269 269 269 269 268 267 267 266 265 265 264 264 263 270 272 268 263 265 272 274 276 274 266 265 264 263 264 265 267 267 270 275 276 276 277 277 277 277 277 277 276 277 277 274
273 273 273 272 271 271 271 271 271 270 270 271 271 272 271 271 270 269 269 268 267 267 267 266 265 265 264 263 263 263 264 264 267 274 274 273 273 274 276 276 275 274 274 270 265 267 274 274 275 275 276 276 276 276 276 276 277 276 276 276 273 270
273 273 273 271 271 271 271 270 270 270 270 270 271 271 270 270 270 269 268 267 267 267 266 265 265 264 263 262 262 263 264 265 263 262 270 272 272 274 275 273 273 273 273 273 273 270 268 272 274 275 275 275 275 275 276 275 275 275 275 275 273 268
274 273 272 271 271 271 270 270 269 269 269 269 269 269 269 269 270 269 268 266 266 266 265 265 264 263 263 262 262 261 262 263 264 264 263 266 271 273 272 271 271 271 271 272 272 273 272 272 273 274 274 274 274 275 274 273 273 273 274 272 267 265
271 271 270 270 270 270 269 269 268 268 267 267 267 267 268 268 267 267 266 266 266 265 265 264 264 263 263 262 262 262 262 262 263 263 264 263 262 262 265 269 269 269 270 271 271 271 271 272 273 273 273 273 273 273 273 271 268 271 271 270 264 264
270 269 269 269 269 269 268 268 266 266 265 265 266 266 266 265 264 263 264 265 265 265 264 264 264 263 262 262 262 262 262 262 262 263 262 261 261 258 257 254 257 265 269 267 267 269 271 271 272 272 272 272 272 272 271 268 263 262 263 263 263 263
269 268 268 268 268 268 267 266 265 264 263 264 263 264 264 263 263 263 264 264 264 263 263 263 262 262 262 262 262 263 262 263 263 262 260 259 259 257 256 257 255 258 265 268 267 268 269 270 271 271 270 270 271 270 268 260 261 261 261 261 261 261
Wind_Speed
4 4 4 2 2 3 4 4 5 5 4 4 6 7 6 6 6 7 6 7 6 6 7 8 7 7 7 6 6 6 8 7 6 6 5 4 4 6 5 5 5 4 4 5 5 5 5 5 5 4 5 4 5 4 4 4 4 4 4 3 3 4
4 5 5 4 4 4 4 4 5 6 6 6 7 6 6 7 8 7 8 6 7 7 7 6 7 7 7 6 7 7 7 6 6 6 5 5 4 4 4 5 5 5 5 5 5 5 4 4 4 4 4 4 4 4 4 4 4 4 4 5 3 2
4 3 3 3 3 3 4 4 6 6 5 7 7 9 7 7 6 7 6 7 8 8 8 8 8 8 7 7 7 8 6 5 5 5 5 4 4 4 5 6 5 5 5 4 4 4 4 4 4 4 4 4 4 4 4 4 4 4 4 4 6 4
4 3 2 3 4 4 5 4 5 5 5 6 6 7 6 8 7 7 7 6 7 8 8 8 6 7 7 8 6 7 6 5 5 5 4 6 4 4 5 5 4 4 4 4 4 4 4 4 4 4 4 5 5 5 3 3 4 4 4 4 5 5
5 5 5 5 5 5 5 5 5 6 5 6 5 8 6 5 6 6 6 7 8 8 7 8 7 7 7 8 6 7 6 5 4 4 6 6 5 4 5 4 4 4 4 4 4 4 4 4 4 4 4 4 3 4 4 3 3 4 4 5 5 5
4 5 5 5 5 5 5 5 5 5 5 5 6 7 7 6 6 6 7 8 8 8 8 8 7 8 7 8 6 7 5 5 5 4 6 5 4 5 3 3 3 4 4 5 5 5 4 4 4 4 4 3 4 4 4 4 4 4 4 4 5 6
7 7 6 6 6 5 5 6 5 6 5 5 6 6 6 6 6 7 7 8 10 8 9 8 7 8 8 8 6 7 6 5 5 4 5 5 5 4 4 4 4 5 5 5 4 4 4 4 4 4 4 4 3 3 4 4 4 4 5 5 5 6
6 5 5 6 6 6 6 5 5 5 5 5 5 8 7 6 7 7 9 8 10 9 9 8 7 8 8 8 7 7 6 6 5 5 4 4 5 4 5 5 5 4 4 4 3 3 3 4 4 4 4 4 4 3 3 4 4 5 5 6 6 5
9 8 6 6 6 6 6 7 7 6 7 7 6 5 7 8 8 8 8 8 8 9 8 8 8 8 8 7 7 6 6 6 5 5 5 4 5 5 5 4 4 3 3 3 3 4 4 4 4 4 4 4 4 4 4 4 4 4 4 5 6 6
8 9 9 8 8 7 6 6 7 8 9 9 7 7 7 7 8 8 8 9 8 8 8 7 7 7 7 6 6 6 5 5 5 4 4 5 6 5 4 4 3 3 2 3 3 3 3 3 3 3 3 4 4 4 4 4 4 5 6 5 6 6
12 11 10 9 8 9 9 8 7 5 5 5 7 8 8 8 9 9 9 8 9 8 7 7 6 6 6 6 6 6 5 5 4 4 5 5 4 4 3 3 3 3 4 4 4 4 3 3 4 3 3 4 5 4 4 4 5 6 7 7 7 7
10 10 10 10 12 11 10 9 9 8 9 8 8 8 7 8 9 10 9 9 9 8 7 7 6 6 6 6 6 5 5 5 5 5 5 4 3 3 3 3 3 3 4 4 4 4 3 3 3 5 10 8 5 5 5 5 5 6 6 7 8 7
10 10 12 13 13 13 12 11 9 8 8 9 9 9 9 7 9 8 9 9 7 7 7 7 7 6 7 5 5 5 5 5 5 5 4 4 4 3 3 3 4 4 4 4 4 4 4 4 4 10 11 11 12 6 5 5 6 5 5 6 6 8
14 15 16 14 13 13 12 12 11 11 12 10 10 9 8 8 8 10 8 8 8 7 8 7 7 7 6 5 5 5 4 5 5 5 4 3 4 3 3 6 4 4 4 4 4 4 5 5 7 12 12 12 13 10 6 4 5 5 5 5 6 7
18 18 16 13 14 14 14 13 13 14 12 11 9 8 9 9 9 9 9 8 8 8 7 7 8 7 6 5 5 4 5 5 4 4 3 3 1 3 6 4 5 4 4 4 5 4 5 4 8 12 13 13 13 13 9 5 4 6 6 6 6 7
12 12 14 15 14 13 11 11 12 10 8 9 9 10 9 10 8 9 9 8 8 8 7 7 7 7 6 5 5 5 5 4 4 3 2 2 3 5 5 4 5 4 4 4 4 4 4 5 8 12 13 13 13 13 10 4 5 5 5 6 7 6
14 11 10 12 13 11 11 10 8 9 9 10 11 9 10 8 10 9 9 9 8 8 8 8 7 7 6 6 5 5 4 4 3 3 2 3 4 4 4 3 3 3 3 4 4 4 4 5 10 12 12 13 13 14 9 5 5 5 5 5 5 6
17 19 18 10 10 11 11 12 9 11 11 8 10 10 8 9 9 9 8 9 8 8 7 8 8 7 6 6 5 5 4 4 3 3 2 3 3 3 3 3 2 2 3 3 4 4 4 5 10 11 12 13 13 13 6 5 6 6 7 6 4 5
13 10 8 10 12 12 12 11 11 11 10 10 9 9 9 9 10 10 9 9 9 8 7 7 8 7 6 6 6 5 4 4 3 3 1 4 3 3 3 2 1 2 2 3 3 4 4 4 8 11 13 13 15 10 5 6 6 7 8 8 6 6
6 8 12 12 12 12 10 10 11 11 12 11 10 10 10 10 10 9 9 9 8 8 7 7 7 8 7 6 6 5 4 2 1 2 1 3 3 3 2 2 2 2 2 2 4 4 4 4 7 11 13 14 15 11 7 6 7 8 7 9 8 6
11 10 10 11 13 12 12 12 13 12 12 11 11 10 11 10 9 10 10 9 7 7 7 7 6 6 7 7 5 5 5 4 3 1 2 3 3 1 1 2 2 2 3 2 3 6 4 4 6 10 13 14 15 11 5 6 7 8 9 9 11 11
11 10 14 16 18 14 15 14 13 13 13 12 11 11 11 11 10 8 7 8 8 7 7 6 7 6 7 7 5 4 4 3 3 3 3 3 3 2 2 1 1 2 3 3 2 3 3 2 4 5 13 13 14 15 8 5 7 10 11 10 10 13
15 18 19 15 13 13 13 13 14 13 12 12 12 13 10 8 8 8 8 8 8 7 7 6 6 8 5 4 5 4 3 3 3 3 4 3 3 3 2 2 2 2 2 3 2 1 3 2 4 6 13 13 14 16 13 5 7 8 10 10 11 10
6 5 5 7 13 14 14 14 15 13 12 12 13 10 8 9 9 9 9 9 8 7 7 7 6 5 5 4 5 6 4 3 3 3 4 3 3 3 3 2 1 0 1 2 1 1 2 3 6 5 9 13 14 15 17 9 7 11 11 11 11 9
8 8 8 8 10 11 12 14 14 12 11 13 9 8 9 9 9 9 9 8 8 7 7 6 6 6 4 4 4 5 5 3 4 4 4 3 3 4 3 1 0 1 1 0 1 1 2 2 2 9 6 10 14 15 15 16 12 17 10 9 11 11
5 7 5 6 8 9 10 14 14 12 13 12 8 9 9 9 9 9 9 8 7 7 7 6 6 5 4 4 4 4 5 5 4 4 3 3 4 4 2 1 0 0 2 3 4 2 2 2 2 5 9 9 15 15 16 16 17 18 11 10 9 12
9 8 6 5 7 7 9 9 13 13 14 9 10 11 11 10 10 10 9 8 8 7 6 6 5 4 4 3 4 6 5 5 4 5 3 4 3 2 1 1 1 2 2 3 4 4 4 3 3 3 7 13 13 15 15 16 18 17 19 12 9 11
7 8 8 5 5 6 6 6 9 16 11 10 9 9 10 11 11 10 9 8 8 7 7 7 6 5 4 4 3 4 3 5 5 5 5 4 3 1 1 1 1 1 1 2 2 3 4 4 3 3 3 5 9 10 14 16 17 17 18 17 14 19
8 9 9 9 5 5 5 5 4 6 9 10 8 9 10 10 10 10 9 9 8 7 7 7 6 6 5 5 4 4 4 4 5 5 5 5 3 2 1 1 1 1 2 2 3 3 4 4 3 4 4 5 6 6 7 9 9 13 14 10 10 12
9 9 9 9 6 4 5 5 6 8 9 8 9 9 10 10 10 11 10 10 8 7 7 6 6 7 6 5 4 5 4 3 4 5 6 6 5 3 1 1 1 2 2 3 3 4 4 5 4 5 7 8 8 8 7 7 8 8 8 9 10 11
8 9 9 8 5 5 6 6 7 9 10 10 9 10 11 10 9 8 9 8 7 7 6 5 6 6 6 6 4 3 3 5 5 5 2 3 4 3 4 3 1 2 1 2 2 4 5 4 5 5 10 11 14 12 11 9 9 9 8 12 19 14
7 9 8 6 5 5 7 7 7 7 7 8 8 9 11 11 10 9 9 8 7 7 7 7 6 6 6 6 6 5 2 2 6 4 4 1 4 7 3 5 2 3 3 2 3 1 2 4 5 12 16 15 16 16 18 17 19 19 16 19 22 13
4 5 5 6 5 5 6 6 6 7 7 8 8 9 10 11 11 9 8 8 8 8 8 8 8 6 5 5 6 6 7 6 3 7 6 4 4 4 5 8 9 8 6 3 0 3 7 9 11 13 14 15 15 16 16 17 17 18 19 21 15 10
5 7 7 6 6 6 6 6 6 7 7 7 8 8 9 10 11 11 10 9 8 8 8 7 7 7 6 5 4 6 7 7 7 2 4 5 4 4 7 7 7 6 6 6 5 2 1 7 11 13 14 14 15 15 16 16 16 16 17 18 16 9
6 5 5 6 7 7 7 7 7 6 6 7 7 7 9 9 9 10 10 9 9 8 8 8 7 7 7 8 7 6 6 7 7 8 4 2 2 5 4 6 6 5 5 5 5 7 8 8 10 12 13 14 14 15 15 15 14 15 17 15 8 6
4 5 6 7 8 7 7 7 7 6 6 5 6 7 8 8 7 7 9 10 11 10 9 8 8 8 7 6 6 6 7 5 6 7 7 7 2 1 4 5 4 3 4 4 6 7 9 9 11 11 13 13 14 16 16 15 10 14 16 14 8 8
6 5 7 8 8 7 7 7 6 5 5 5 6 7 6 6 6 6 6 9 9 8 9 8 7 7 7 7 7 7 6 6 5 6 6 7 8 7 3 1 3 5 1 2 4 7 8 9 10 11 13 14 15 16 17 13 8 10 9 8 7 8
5 5 5 7 7 7 7 7 5 6 5 5 5 6 7 6 7 6 7 7 8 7 6 7 7 7 7 7 7 6 6 6 6 6 5 4 4 4 1 2 3 2 4 3 5 7 8 9 10 11 12 13 14 15 15 9 8 6 7 7 7 7
Wind_Direction
175 169 166 166 153 152 149 140 141 131 121 119 124 123 120 122 112 104 95 100 103 108 111 113 109 109 110 109 112 110 109 112 110 105 116 103 91 92 93 89 85 81 70 72 65 55 52 46 44 38 41 47 52 29 31 14 34 35 19 356 358 324
178 169 158 152 147 137 138 128 122 125 131 124 114 106 108 109 107 109 111 110 113 112 105 99 107 110 113 119 117 112 112 120 118 117 103 110 101 104 107 99 91 82 77 65 69 62 54 55 43 48 51 50 54 42 33 7 31 31 11 334 332 332
178 170 149 125 104 107 117 125 129 128 124 126 134 133 128 118 121 117 124 123 118 117 115 116 113 110 110 106 106 108 113 113 110 108 124 114 98 117 93 85 84 82 87 83 73 74 62 57 45 35 54 56 36 18 18 14 22 15 341 348 329 338
165 138 104 106 112 116 117 121 120 123 128 132 128 122 129 132 134 131 130 120 118 115 116 112 108 111 108 107 105 108 109 110 114 129 118 100 94 89 89 87 87 93 93 85 79 72 65 54 48 30 39 36 20 358 1 359 356 352 330 340 323 319
162 156 149 146 142 140 134 134 134 137 135 132 135 130 136 131 130 123 120 120 118 115 112 113 111 110 111 110 112 111 113 116 113 115 103 94 88 69 85 97 94 97 97 81 65 52 44 36 31 22 32 23 14 352 331 335 334 319 319 324 311 309
149 145 151 149 149 150 151 145 137 137 140 140 135 134 134 126 125 123 119 116 113 117 117 115 119 116 120 116 122 117 116 109 99 90 90 92 86 82 75 81 89 74 59 52 37 35 27 22 11 2 11 0 352 341 325 321 318 299 293 290 297 304
168 175 168 163 161 157 151 150 152 149 146 142 139 134 134 127 127 124 123 126 124 124 123 127 130 128 126 122 122 115 110 101 97 83 91 91 78 75 73 52 46 50 46 43 34 16 10 4 1 356 347 343 342 320 307 307 306 300 297 292 288 291
174 170 174 170 169 162 158 157 155 148 145 150 148 143 139 137 130 132 131 134 130 133 133 137 136 132 128 124 119 115 113 109 101 100 83 97 91 70 59 56 41 49 34 33 19 16 4 358 357 343 323 316 318 316 303 291 290 291 292 294 290 285
187 181 176 172 168 168 167 162 160 159 154 153 152 147 142 145 139 140 137 139 136 137 141 141 139 133 128 124 122 120 112 107 108 99 98 94 87 75 57 40 41 24 30 9 13 11 2 349 340 327 319 317 318 312 308 304 298 289 284 279 280 281
177 179 180 175 175 170 171 175 171 167 164 158 155 150 146 148 142 142 143 142 141 140 140 138 136 127 123 121 116 111 109 104 97 97 93 83 74 72 66 51 30 354 30 15 15 354 357 343 330 322 314 307 301 305 301 298 299 299 296 293 291 289
185 182 179 177 169 175 175 171 170 162 154 152 156 155 159 155 146 147 149 147 142 143 140 133 126 120 116 113 108 102 98 93 90 81 75 74 74 66 64 62 52 31 12 5 9 355 351 339 317 309 318 322 322 314 309 305 304 301 302 302 300 297
181 181 175 177 181 177 175 174 174 170 164 164 164 160 160 152 157 152 151 146 143 140 136 128 121 119 113 108 107 107 102 95 87 83 77 72 72 66 52 44 46 53 36 5 351 351 346 335 326 328 331 333 324 317 313 310 303 302 300 302 303 300
184 182 186 187 184 182 177 176 171 165 168 169 167 166 166 160 155 154 149 145 144 137 131 125 123 119 111 114 108 103 98 92 88 81 77 68 65 60 47 55 42 27 17 7 350 344 347 342 335 335 336 329 326 319 306 301 300 297 298 298 297 302
189 192 192 188 185 179 177 174 173 172 178 173 171 163 156 157 160 153 149 143 140 137 132 129 124 116 117 111 107 103 100 94 86 81 80 72 50 35 55 49 36 24 10 359 354 353 344 338 329 332 327 326 327 326 315 304 303 303 302 297 298 300
196 194 191 185 184 183 186 174 170 181 176 170 163 149 160 164 160 150 145 146 140 137 133 130 125 122 118 114 109 104 94 94 87 77 69 63 66 63 53 39 36 18 3 360 349 348 341 331 321 322 325 329 330 332 333 319 310 309 303 304 301 302
198 199 194 190 187 184 173 177 175 168 159 155 152 160 164 159 160 152 147 143 142 140 135 131 128 125 123 117 106 99 95 90 95 100 94 81 55 56 51 41 33 18 3 349 338 336 326 320 308 323 330 333 337 338 343 314 313 305 299 302 303 304
195 187 184 191 183 171 161 169 168 154 156 164 163 167 160 162 152 151 149 145 143 139 136 133 133 129 125 116 109 103 97 101 96 76 59 69 63 58 49 36 28 1 354 335 328 328 320 308 317 329 335 340 341 343 344 319 315 310 306 303 301 302
191 191 194 166 155 169 173 171 161 162 168 165 162 156 162 156 153 151 150 147 148 145 143 140 136 130 124 119 112 111 108 98 98 88 62 63 55 58 63 32 48 16 344 322 323 325 322 313 322 332 340 346 347 349 337 328 326 324 319 316 310 306
192 182 149 161 170 165 176 166 163 161 156 162 165 160 160 160 157 159 156 151 149 146 145 143 138 133 128 126 121 118 119 112 95 80 81 68 59 55 46 49 19 331 332 326 324 322 314 313 316 336 348 353 351 351 340 333 329 324 322 319 319 317
150 150 162 162 171 172 159 159 161 159 164 167 163 162 165 168 166 161 155 152 151 145 141 138 136 134 133 129 131 132 125 120 101 104 81 91 71 44 34 38 17 339 339 328 312 312 310 311 318 342 353 356 354 354 344 333 331 322 322 321 321 324
161 155 149 157 166 173 163 161 161 163 170 168 167 168 168 174 164 163 158 150 140 132 129 130 129 132 133 130 134 134 124 125 117 109 93 93 98 93 44 29 36 348 339 318 296 301 302 302 320 338 356 356 355 354 343 337 333 327 329 330 327 326
129 152 165 177 183 165 163 160 164 170 170 172 168 170 177 175 166 149 129 128 127 123 121 126 127 129 132 133 131 123 128 139 94 75 77 61 86 71 33 42 35 16 329 323 301 290 286 302 324 336 356 357 357 356 358 342 344 337 331 331 329 326
168 175 183 182 160 158 162 163 163 174 174 169 172 182 175 152 136 134 132 126 123 121 122 121 128 129 124 127 129 127 114 107 108 93 78 65 49 63 43 39 26 19 310 297 282 275 324 331 346 337 355 357 360 359 1 349 344 330 328 327 326 323
159 146 145 156 161 161 164 165 171 172 169 172 183 173 137 137 137 132 130 129 126 124 123 124 121 117 124 128 122 117 109 104 99 95 92 89 93 81 63 51 36 279 260 274 276 356 353 344 355 346 346 356 1 359 358 355 345 341 332 325 316 315
160 162 158 151 158 164 168 167 169 170 168 179 170 137 139 135 135 131 128 126 126 128 129 127 127 126 122 121 124 124 116 106 90 79 82 98 87 82 69 58 122 197 219 240 322 349 353 346 344 354 352 351 359 356 355 351 345 339 334 319 316 318
134 135 135 148 157 166 169 170 168 168 172 172 139 138 132 133 129 128 126 129 131 131 130 128 121 118 113 126 126 122 119 108 103 98 108 93 92 89 72 305 252 42 54 14 345 349 346 339 345 342 358 360 357 353 349 346 342 340 331 325 314 318
146 136 134 147 158 164 171 176 168 165 171 157 147 147 145 138 135 132 134 137 138 133 131 118 117 118 117 130 139 136 131 120 134 115 82 90 84 111 102 299 42 42 24 12 355 337 330 337 344 340 354 359 352 348 345 343 339 335 333 325 315 310
118 133 139 146 160 161 169 174 170 171 165 144 150 143 140 138 136 137 140 140 138 139 135 129 122 116 115 118 107 108 122 139 139 124 117 116 128 146 157 55 62 35 35 19 341 335 328 333 339 340 332 335 343 341 340 337 335 331 329 324 312 313
141 153 157 159 172 157 154 148 141 133 129 148 139 137 137 139 141 139 142 143 141 140 145 144 145 139 126 111 105 98 113 118 123 124 129 139 151 178 173 110 89 37 19 14 353 338 332 333 335 337 330 332 330 328 329 328 322 323 320 312 305 315
159 163 164 167 166 148 138 134 129 133 136 136 143 142 142 146 153 150 149 148 148 151 155 152 145 141 126 129 134 136 123 110 127 137 152 157 174 148 150 131 90 49 16 11 353 340 336 334 344 341 343 344 341 337 333 326 319 320 321 323 323 326
168 171 168 163 156 146 140 135 134 142 147 149 150 152 148 148 142 138 141 146 145 153 155 152 151 145 137 129 124 131 160 149 159 163 199 229 175 158 154 125 81 74 96 81 360 354 342 346 341 331 340 342 343 342 338 336 335 329 328 330 333 332
172 169 169 155 152 151 147 145 145 147 144 144 150 153 151 147 144 146 154 156 154 153 151 146 149 142 140 145 143 128 97 170 161 178 145 163 184 188 167 138 140 122 113 70 318 329 354 317 308 331 342 344 344 343 343 339 337 336 336 337 341 343
162 162 158 156 154 157 153 148 149 145 149 152 159 161 159 155 153 157 155 158 166 166 160 154 144 143 144 149 144 142 132 106 89 102 97 84 85 93 119 102 72 56 40 63 11 316 342 333 334 340 342 345 348 349 347 345 345 348 347 348 347 351
170 179 175 156 162 159 156 153 159 159 160 164 166 169 166 169 161 163 170 168 163 157 159 156 153 149 147 147 149 154 145 140 124 59 39 65 53 129 131 79 59 40 26 13 9 10 299 343 345 344 345 349 352 353 354 357 359 359 360 2 359 350
183 171 157 162 169 169 169 169 174 168 170 169 170 168 171 176 176 164 163 162 159 159 155 158 159 160 157 155 156 158 159 150 151 142 132 9 71 128 92 46 36 25 17 5 15 9 4 353 349 350 352 356 355 358 4 9 8 10 9 14 10 4
157 160 166 174 181 179 176 183 180 175 173 168 172 177 182 182 181 170 165 167 166 162 166 168 167 161 163 163 158 156 153 157 152 149 142 144 124 16 13 33 23 6 7 14 25 8 3 356 357 360 1 2 3 6 11 13 11 12 14 18 9 1
160 169 177 178 180 184 189 195 184 171 168 176 178 178 181 175 161 153 160 159 161 167 166 164 161 161 156 159 159 156 154 151 151 140 154 161 156 148 150 257 306 322 41 79 14 4 3 4 7 11 10 9 11 14 15 14 13 13 5 11 9 2
167 180 176 181 187 190 194 204 180 168 172 178 177 182 181 171 165 166 167 167 165 160 162 162 161 164 161 161 158 154 150 146 148 152 171 159 131 122 145 262 265 252 293 22 12 9 8 12 15 19 16 18 19 20 21 23 15 7 360 358 354 352